[[{"header":{"parameterUnit":"m.s-1","parameterCategory":1,"la1":30.2991,"la2":30.254,"lo1":-89.0895,"lo2":-89.0444,"dy":0.0017,"dx":0.0017,"nx":28,"ny":28,"refTime":"2024-03-13T03:00:00:Z","depth":0,"parameterNumber":2,"parameterNumberName":"U-component_of_WINDS"},"data":[0,0,0,0,0,0,0,0,0,0,0,0,0,0,0,0,0,0,0,0,0,0,0,0,0,0,0,0,0,0,0,0,0,0,0,0,0,0,0,0,0,0,0,0,0,0,0,0,0,0,0,0,0,0,0,0,0,0,-2.9737,-2.9739,0,-2.9912,-2.9914,-2.9916,-2.9979,-2.9979,-2.9978,-2.9978,-3.0159,-3.0164,-3.0169,0,0,0,0,0,0,0,0,0,0,0,0,0,-2.9461,-2.9466,-2.9737,-2.9739,-2.9741,-2.9912,-2.9914,-2.9916,-2.998,-2.9979,-2.9978,-2.9977,-3.0157,-3.0163,-3.017,0,0,0,0,0,0,0,0,0,0,0,0,0,-2.9603,-2.9468,-2.9736,-2.9793,-2.98,-2.9911,-2.9914,-2.9917,-2.998,-2.9979,-2.9978,-2.9977,-3.0155,-3.0163,-3.017,-3.0238,0,0,-3.0195,-3.0199,0,0,0,0,0,0,0,0,-2.9595,-2.9613,-2.9783,-2.979,-2.9797,-2.9923,-2.9883,-3.0025,-2.998,-2.9912,-2.9978,-2.9977,-3.0081,-3.0095,-3.013,-3.0247,-3.0255,-3.0196,-3.0201,-3.0204,-3.0206,0,0,0,0,0,0,0,-2.9585,-2.9606,-2.9806,-2.9785,-2.9794,-2.9811,-2.983,-2.991,-2.9999,-2.9917,-2.9922,-2.9942,-3.0085,-3.0122,-3.0135,-3.0257,-3.0196,-3.0203,-3.0208,-3.0211,-3.0442,-3.0443,0,0,0,0,0,0,-2.9565,-2.9597,-2.9801,-2.9811,-2.9692,-2.9817,-2.9838,-2.9884,-2.9999,-3.0015,-2.9943,-2.9944,-3.0109,-3.0125,-3.0141,-3.0229,-3.0204,-3.0212,-3.0216,-3.044,-3.0442,-3.0443,0,0,0,0,0,0,-2.9559,-2.9583,-2.9794,-2.9706,-2.9734,-2.9823,-2.9873,-2.9887,-2.9925,-3.0018,-3.0034,-2.9964,-3.0109,-3.013,-3.0214,-3.0236,-3.0215,-3.0223,-3.0439,-3.0441,-3.0443,-3.0405,0,0,0,0,0,0,-2.9551,-2.958,-2.9606,-2.9706,-2.9738,-2.9862,-2.9874,-2.9892,-2.9938,-2.9942,-3.0042,-3.0058,-3.0109,-3.0202,-3.0222,-3.0247,-3.0229,-3.0437,-3.044,-3.0442,-3.0404,-3.0405,-3.0406,0,0,0,0,0,-2.9541,-2.9588,-2.9607,-2.9631,-2.9772,-2.9863,-2.9882,-2.994,-2.994,-2.9967,-3.0027,-3.0055,-3.0231,-3.021,-3.0233,-3.0261,-3.0436,-3.0439,-3.0442,-3.0404,-3.0405,-3.0406,0,0,0,0,0,0,-2.9488,-2.9602,-2.9624,-2.9705,-2.9774,-2.9874,-2.9909,-2.9939,-3.001,-3.001,-3.008,-3.0102,-3.0181,-3.023,-3.0204,-3.0334,-3.0336,-3.0343,-3.0299,-3.03,-3.0301,-3.0287,-3.0236,0,0,0,0,0,-2.9486,-2.9549,-2.9646,-2.9708,-2.9742,-2.9819,-2.9861,-2.99,-2.9975,-3.0004,-3.0071,-3.0143,-3.0215,-3.0261,-3.0332,-3.0413,-3.0436,-3.0444,-3.0444,-3.0445,-3.045,-3.0498,-3.0502,-3.0453,-3.0453,-3.0453,0,0,-2.9481,-2.9552,-2.9587,-2.9699,-2.9757,-2.9823,-2.9843,-2.9911,-2.9961,-3.0015,-3.0098,-3.015,-3.0236,-3.0319,-3.0359,-3.0362,-3.0469,-3.0448,-3.0448,-3.0453,-3.0501,-3.0506,-3.051,-3.0455,-3.0454,-3.0454,0,0,-2.9507,-2.9566,-2.9625,-2.9683,-2.9771,-2.9823,-2.9837,-2.9934,-2.997,-3.0055,-3.0097,-3.0159,-3.0281,-3.034,-3.0386,-3.0438,-3.0467,-3.046,-3.0463,-3.0508,-3.0512,-3.0516,-3.0535,-3.0541,-3.0465,-3.0465,-3.0465,0,-2.949,-2.9589,-2.9651,-2.9717,-2.9766,-2.9819,-2.988,-2.9934,-3.004,-3.0073,-3.0076,-3.0232,-3.0293,-3.0391,-3.0404,-3.044,-3.0459,-3.0447,-3.0507,-3.0511,-3.0516,-3.0534,-3.0541,-3.0464,-3.0464,-3.0464,-3.0464,0,-2.9565,-2.9633,-2.9671,-2.9772,-2.9825,-2.9888,-2.9961,-3.0008,-3.0044,-3.0096,-3.0183,-3.0259,-3.0348,-3.0375,-3.041,-3.0479,-3.0478,-3.0493,-3.0495,-3.0518,-3.0536,-3.0544,-3.0462,-3.0462,-3.0463,-3.0463,0,0,-2.9559,-2.9696,-2.9708,-2.9756,-2.9858,-2.9913,-2.998,-3.0066,-3.0105,-3.0178,-3.0237,-3.0341,-3.0356,-3.0408,-3.0451,-3.0492,-3.0529,-3.0502,-3.0505,-3.0504,-3.061,-3.0597,-3.0604,-3.0549,-3.0551,-3.0552,-3.0603,0,-2.9597,-2.9717,-2.9776,-2.9871,-2.9936,-2.9989,-3.0047,-3.0117,-3.0169,-3.0233,-3.0291,-3.0363,-3.0377,-3.041,-3.0452,-3.0515,-3.0551,-3.0512,-3.0605,-3.0607,-3.0579,-3.0614,-3.06,-3.0644,-3.0611,-3.0612,-3.0613,0,-2.9657,-2.9729,-2.983,-2.9927,-2.9956,-3.0007,-3.0092,-3.0152,-3.0234,-3.0269,-3.0329,-3.0372,-3.0446,-3.0445,-3.0549,-3.0522,-3.0564,-3.0601,-3.0604,-3.0614,-3.061,-3.0624,-3.066,-3.0666,-3.0625,-3.0624,-3.0623,0,-2.9641,-2.9765,-2.9841,-2.9881,-2.9995,-3.003,-3.008,-3.0161,-3.021,-3.0285,-3.0318,-3.0401,-3.0446,-3.051,-3.0575,-3.0568,-3.0673,-3.0677,-3.0705,-3.0703,-3.0722,-3.072,-3.0765,-3.0752,-3.0752,-3.0752,-3.0751,0,-2.9677,-2.9737,-2.9836,-2.9883,-2.9952,-3.0021,-3.0089,-3.0143,-3.0215,-3.0274,-3.0327,-3.0382,-3.0464,-3.0531,-3.0583,-3.0661,-3.0682,-3.0713,-3.0725,-3.0707,-3.0703,-3.0734,-3.0732,-3.0753,-3.0753,-3.0753,-3.0752,0,-2.9671,-2.974,-2.9827,-2.9929,-2.9956,-3.0003,-3.0091,-3.014,-3.0195,-3.027,-3.0292,-3.0379,-3.046,-3.0532,-3.0639,-3.0674,-3.0755,-3.0771,-3.0726,-3.0733,-3.0756,-3.0753,-3.0821,-3.0834,-3.0813,-3.0813,-3.0813,0,-2.9688,-2.9735,-2.9843,-2.9886,-2.9935,-3.0004,-3.0054,-3.0125,-3.0176,-3.0274,-3.0311,-3.0396,-3.0467,-3.0595,-3.0669,-3.0752,-3.077,-3.0789,-3.0783,-3.0763,-3.077,-3.0765,-3.0771,-3.0787,-3.0787,-3.0787,-3.0787,0,-2.9712,-2.9744,-2.9814,-2.9896,-2.9955,-3.0023,-3.0093,-3.0126,-3.0211,-3.0266,-3.0349,-3.0404,-3.0514,-3.0598,-3.069,-3.0743,-3.078,-3.0789,-3.08,-3.078,-3.0752,-3.0767,-3.0725,-3.0786,-3.0786,-3.0786,-3.0786,-3.0786,-2.9718,-2.9762,-2.9845,-2.9922,-2.9982,-3.0047,-3.0098,-3.0161,-3.0231,-3.0325,-3.0364,-3.0448,-3.0532,-3.0659,-3.0713,-3.0781,-3.0788,-3.0803,-3.0807,-3.0809,-3.0806,-3.0743,-3.0799,-3.0799,-3.0799,-3.0799,-3.0799,0,-2.9744,-2.98,-2.987,-2.9966,-3.0027,-3.0056,-3.0136,-3.0186,-3.0259,-3.0334,-3.0403,-3.05,-3.0582,-3.0664,-3.0751,-3.079,-3.0809,-3.0811,-3.0808,-3.082,-3.0795,-3.0777,-3.0794,-3.0794,-3.0794,-3.0794,-3.0794,-3.0794,-2.9764,-2.9841,-2.9884,-2.9993,-3.005,-3.0132,-3.0175,-3.0236,-3.0296,-3.0401,-3.047,-3.0522,-3.0601,-3.0694,-3.0772,-3.0794,-3.0824,-3.082,-3.0847,-3.0822,-3.0821,-3.0821,-3.0804,-3.0826,-3.0826,-3.0865,-3.0866,-3.0866]},{"header":{"parameterUnit":"m.s-1","parameterCategory":1,"la1":30.2991,"la2":30.254,"lo1":-89.0895,"lo2":-89.0444,"dy":0.0017,"dx":0.0017,"nx":28,"ny":28,"refTime":"2024-03-13T03:00:00:Z","depth":0,"parameterNumber":3,"parameterNumberName":"V-component_of_WINDS"},"data":[0,0,0,0,0,0,0,0,0,0,0,0,0,0,0,0,0,0,0,0,0,0,0,0,0,0,0,0,0,0,0,0,0,0,0,0,0,0,0,0,0,0,0,0,0,0,0,0,0,0,0,0,0,0,0,0,0,0,3.8358,3.8359,0,3.8414,3.8414,3.8415,3.8411,3.841,3.8409,3.8408,3.8464,3.8466,3.8468,0,0,0,0,0,0,0,0,0,0,0,0,0,3.8249,3.8251,3.8358,3.8359,3.8359,3.8413,3.8414,3.8415,3.8411,3.841,3.8409,3.8408,3.8463,3.8466,3.8469,0,0,0,0,0,0,0,0,0,0,0,0,0,3.8299,3.8251,3.8358,3.8364,3.8365,3.8413,3.8414,3.8415,3.8411,3.841,3.8408,3.8407,3.8462,3.8466,3.8469,3.8515,0,0,3.8479,3.8481,0,0,0,0,0,0,0,0,3.8296,3.8303,3.8362,3.8363,3.8365,3.8404,3.8396,3.8449,3.8411,3.8393,3.8408,3.8407,3.8445,3.845,3.8463,3.8517,3.852,3.848,3.8482,3.8483,3.8484,0,0,0,0,0,0,0,3.8293,3.8301,3.838,3.8363,3.8365,3.8364,3.837,3.8406,3.8425,3.8395,3.8395,3.8401,3.8445,3.846,3.8464,3.8521,3.848,3.8483,3.8485,3.8486,3.8619,3.862,0,0,0,0,0,0,3.8288,3.8298,3.8378,3.8382,3.8327,3.8367,3.8373,3.8393,3.8425,3.8429,3.8402,3.8401,3.8454,3.846,3.8466,3.8524,3.8483,3.8486,3.8488,3.8617,3.8619,3.862,0,0,0,0,0,0,3.8286,3.8295,3.8376,3.834,3.835,3.837,3.8392,3.8394,3.8408,3.8431,3.8434,3.8413,3.8454,3.8461,3.8503,3.8526,3.8488,3.8491,3.8615,3.8618,3.862,3.8639,0,0,0,0,0,0,3.8283,3.8294,3.8312,3.834,3.8352,3.8412,3.8393,3.8396,3.8414,3.8413,3.8442,3.8445,3.8453,3.8498,3.8507,3.853,3.8494,3.8613,3.8616,3.8619,3.8636,3.8642,3.8646,0,0,0,0,0,3.8279,3.8314,3.8313,3.8322,3.8374,3.8414,3.842,3.8429,3.8416,3.8434,3.8449,3.8445,3.8522,3.8503,3.8512,3.8536,3.8612,3.8615,3.8619,3.8634,3.8641,3.8646,0,0,0,0,0,0,3.8287,3.8318,3.8317,3.8362,3.8386,3.8413,3.8436,3.8435,3.8462,3.8459,3.8468,3.8475,3.8518,3.8531,3.8509,3.8584,3.8565,3.8571,3.8574,3.858,3.8585,3.8581,3.8496,0,0,0,0,0,3.8294,3.8324,3.8349,3.8387,3.8399,3.8415,3.8433,3.8438,3.8462,3.8471,3.8489,3.8512,3.8542,3.8561,3.859,3.8638,3.8645,3.8659,3.8664,3.8668,3.8673,3.8702,3.8709,3.8631,3.8631,3.8631,0,0,3.831,3.833,3.8348,3.839,3.8408,3.8439,3.8424,3.8456,3.848,3.8476,3.8518,3.8532,3.8558,3.8605,3.8626,3.8617,3.8696,3.8672,3.8675,3.8678,3.8706,3.8713,3.872,3.8634,3.8633,3.8633,0,0,3.8354,3.8371,3.8406,3.8426,3.8454,3.8465,3.8473,3.8501,3.8511,3.8553,3.8552,3.8579,3.863,3.865,3.8666,3.872,3.8718,3.8729,3.8754,3.8782,3.8788,3.8794,3.8815,3.8823,3.8733,3.8734,3.8734,0,3.8369,3.8416,3.8424,3.8458,3.8477,3.8476,3.8512,3.853,3.8566,3.858,3.8569,3.8635,3.8652,3.8704,3.8718,3.873,3.8741,3.8726,3.8787,3.8793,3.8798,3.8818,3.8826,3.8735,3.8735,3.8735,3.8734,0,3.8434,3.8467,3.8492,3.8528,3.8549,3.8584,3.8598,3.8619,3.8622,3.8635,3.8679,3.87,3.8734,3.8746,3.8749,3.8799,3.8793,3.8785,3.8767,3.8806,3.8826,3.8834,3.8737,3.8736,3.8736,3.8736,0,0,3.8486,3.8527,3.8536,3.8554,3.8586,3.8611,3.8646,3.868,3.8699,3.8724,3.8755,3.8798,3.8792,3.8811,3.8816,3.884,3.8884,3.8829,3.883,3.884,3.8943,3.8951,3.896,3.8882,3.8884,3.8885,3.8942,0,3.8535,3.8598,3.8607,3.8663,3.8694,3.8694,3.8725,3.8748,3.8761,3.8789,3.8803,3.8835,3.8822,3.8834,3.8858,3.8874,3.8905,3.8869,3.8912,3.8914,3.8908,3.897,3.8978,3.9031,3.8949,3.8951,3.8952,0,3.86,3.8629,3.8688,3.8718,3.8731,3.8759,3.8792,3.8819,3.8846,3.8853,3.8876,3.8878,3.8916,3.8895,3.8947,3.8923,3.8941,3.8951,3.8954,3.8959,3.8936,3.8979,3.9047,3.9056,3.8963,3.8962,3.8961,0,3.8635,3.8687,3.873,3.8745,3.878,3.88,3.8816,3.8841,3.8862,3.889,3.8904,3.8936,3.8954,3.898,3.8991,3.8975,3.9044,3.9023,3.9053,3.9053,3.9068,3.9068,3.9143,3.9077,3.9076,3.9076,3.9076,0,3.869,3.8727,3.8747,3.8773,3.8815,3.8825,3.8866,3.8881,3.8904,3.8935,3.8936,3.8964,3.8976,3.9007,3.9016,3.906,3.9067,3.9075,3.9077,3.9076,3.9076,3.909,3.9087,3.9078,3.9078,3.9078,3.9077,0,3.8736,3.8751,3.8798,3.8828,3.8836,3.8866,3.8892,3.8918,3.893,3.8969,3.8978,3.8998,3.9034,3.9048,3.9091,3.9098,3.9149,3.9147,3.914,3.9141,3.9171,3.9169,3.9259,3.9272,3.9195,3.9196,3.9196,0,3.8771,3.88,3.8833,3.8854,3.8871,3.8903,3.8925,3.8936,3.8958,3.8992,3.9015,3.9051,3.908,3.9138,3.9157,3.9191,3.9191,3.922,3.9196,3.9195,3.9194,3.9194,3.9198,3.9225,3.9226,3.9227,3.9227,0,3.8833,3.884,3.8871,3.8905,3.893,3.8958,3.8984,3.9001,3.9016,3.9041,3.9079,3.9102,3.9147,3.9184,3.9219,3.9235,3.9235,3.9235,3.9244,3.9244,3.924,3.9245,3.9155,3.9233,3.9232,3.9232,3.9232,3.9231,3.8877,3.8903,3.8932,3.8967,3.8988,3.9013,3.904,3.9056,3.9088,3.9126,3.9131,3.9171,3.9199,3.9246,3.9264,3.9297,3.9289,3.9301,3.9305,3.9308,3.9312,3.9233,3.9303,3.9303,3.9302,3.9302,3.9302,0,3.8941,3.896,3.8992,3.9029,3.9057,3.9054,3.9084,3.9107,3.9143,3.9169,3.9199,3.9243,3.9279,3.93,3.9336,3.9358,3.9359,3.9368,3.9367,3.9372,3.9315,3.9305,3.9367,3.9367,3.9367,3.9367,3.9367,3.9367,3.8978,3.9024,3.9033,3.909,3.9108,3.9148,3.9166,3.9189,3.921,3.926,3.929,3.9304,3.9328,3.9367,3.94,3.9405,3.942,3.9429,3.9434,3.9382,3.9375,3.9369,3.936,3.9432,3.9432,3.9488,3.9489,3.9489]}]]